{"data":{"norad_id":65683,"epoch":"2026-09-20T06:17:02.857632Z","epoch_age_seconds":129351,"freshness":"FRESH","line1":"1 65683U 25212H   26263.26183863  .00022976  00000+0  74894-3 0  9996","line2":"2 65683  53.1572 160.4733 0000877  89.8660 270.2442 15.31740340 57007","mean_motion":15.3174034,"eccentricity":8.77e-5,"inclination_deg":53.1572,"raan_deg":160.4733,"arg_perigee_deg":89.866,"mean_anomaly_deg":270.2442,"bstar":0.00074894,"rev_number":5700,"period_min":94.010712024468,"perigee_km":470.01911045724,"apogee_km":471.22038239056,"semimajor_km":6848.7567464239,"source":"CELESTRAK","updated_at":"2026-09-21T09:00:35.685930Z"}}